Ahmedabad, India

11:14 AM IST on May 23, 2017 (GMT +0530)
Ahmedabad

Weather History for VAAH - March, 2013

Change the Weather History Date:

Saturday, March 2, 2013

  Actual Average Record
Temperature  
Mean Temperature 74 °F -  
Max Temperature 91 °F 93 °F 100 °F (2009)
Min Temperature 57 °F 67 °F 35 °F (2009)
Cooling Degree Days 9    
Growing Degree Days 24 (Base 50)    
Moisture  
Dew Point 37 °F    
Average Humidity 29    
Maximum Humidity 55    
Minimum Humidity 6    
Precipitation  
Precipitation 0.00 in 0.00 in - ()
Sea Level Pressure  
Sea Level Pressure 29.97 in    
Wind  
Wind Speed 5 mph ()    
Max Wind Speed 12 mph    
Max Gust Speed -    
Visibility 3.1 miles    
Events      
Averages and records for this station are not official NWS values.
T = Trace of Precipitation, MM = Missing Value Source: Averaged Metar Reports

Daily Weather History Graph

Daily Weather History Graph

Search for Another Location

Airport or City:

Trip Planner

Search our weather history database for the weather conditions in past years. The results will help you decide how hot, cold, wet, or windy it might be!

Date:

Astronomy

Mar. 02, 2013 Rise Set
Actual Time 7:00 AM IST 6:43 PM IST
Civil Twilight 6:37 AM IST 7:05 PM IST
Nautical Twilight 6:11 AM IST 7:31 PM IST
Astronomical Twilight 5:45 AM IST 7:58 PM IST
Moon 11:11 PM IST (3/2) 9:46 AM IST (3/2)
Length of Visible Light 12h 28m
Length of Day
11h 42m
Waning Gibbous, 78% of the Moon is Illuminated
Mar 2
Waning Gibbous
Mar 5
Last Quarter
Mar 12
New
Mar 19
First Quarter
Mar 27
Full

Hourly Weather History & Observations

Time (IST) Temp. Dew Point Humidity Pressure Visibility Wind Dir Wind Speed Gust Speed Precip Events Conditions
12:10 AM 62.6 °F 44.6 °F 52% 29.98 in 2.5 mi NE 3.5 mph - N/A   Smoke
12:40 AM 60.8 °F 42.8 °F 52% 29.98 in 2.5 mi NNE 3.5 mph - N/A   Smoke
1:10 AM 59.0 °F 42.8 °F 55% 29.98 in 2.5 mi NNE 3.5 mph - N/A   Smoke
1:40 AM 59.0 °F 42.8 °F 55% 29.98 in 2.5 mi NNE 3.5 mph - N/A   Smoke
2:10 AM 57.2 °F 41.0 °F 55% 29.98 in 2.5 mi NNE 4.6 mph - N/A   Smoke
2:40 AM 57.2 °F 39.2 °F 51% 29.95 in 2.5 mi NE 3.5 mph - N/A   Smoke
3:10 AM 59.0 °F 37.4 °F 45% 29.95 in 2.5 mi NE 6.9 mph - N/A   Smoke
3:40 AM 60.8 °F 35.6 °F 39% 29.95 in 2.5 mi NE 6.9 mph - N/A   Smoke
4:10 AM 60.8 °F 35.6 °F 39% 29.95 in 2.5 mi NE 6.9 mph - N/A   Smoke
4:40 AM 60.8 °F 35.6 °F 39% 29.95 in 2.5 mi NE 9.2 mph - N/A   Smoke
5:10 AM 62.6 °F 35.6 °F 37% 29.95 in 2.5 mi NE 8.1 mph - N/A   Smoke
5:30 AM 65 °F 38 °F 25% 30.00 in 2 mi NE 5.8 mph - -  
5:40 AM 60.8 °F 35.6 °F 39% 29.98 in 2.5 mi ENE 8.1 mph - N/A   Smoke
6:10 AM 59.0 °F 35.6 °F 42% 29.98 in 2.5 mi NE 6.9 mph - N/A   Smoke
6:40 AM 55.4 °F 35.6 °F 47% 30.01 in 2.5 mi NE 5.8 mph - N/A   Smoke
8:10 AM 64.4 °F 35.6 °F 34% 30.04 in 2.2 mi ENE 6.9 mph - N/A   Smoke
8:30 AM 69 °F 37 °F 20% 30.06 in 2 mi NE 3.5 mph - -   Smoke
8:40 AM 69.8 °F 35.6 °F 28% 30.04 in 2.2 mi ENE 10.4 mph - N/A   Smoke
9:10 AM 73.4 °F 37.4 °F 27% 30.06 in 2.5 mi ENE 10.4 mph - N/A   Smoke
10:10 AM 78.8 °F 37.4 °F 23% 30.06 in 3.1 mi ENE 9.2 mph - N/A   Smoke
10:40 AM 78.8 °F 39.2 °F 24% 30.04 in 3.7 mi ENE 9.2 mph - N/A   Unknown
11:10 AM 82.4 °F 37.4 °F 20% 30.04 in 3.7 mi ENE 11.5 mph - N/A   Unknown
11:30 AM 84 °F 38 °F 11% 30.07 in 2 mi NE 6.9 mph - -  
11:40 AM 84.2 °F 39.2 °F 20% 30.04 in 3.7 mi ENE 9.2 mph - N/A   Unknown
12:10 PM 87.8 °F 39.2 °F 18% 30.01 in 5.0 mi ENE 8.1 mph - N/A   Unknown
12:40 PM 87.8 °F 37.4 °F 17% 30.01 in 5.0 mi ENE 9.2 mph - N/A   Unknown
1:10 PM 87.8 °F 35.6 °F 16% 29.98 in 5.0 mi ENE 9.2 mph - N/A   Unknown
1:40 PM 89.6 °F 35.6 °F 15% 29.95 in 5.0 mi ENE 10.4 mph - N/A   Unknown
2:10 PM 91.4 °F 33.8 °F 13% 29.95 in 5.0 mi ENE 9.2 mph - N/A   Unknown
2:30 PM 90 °F 30 °F 6% 29.99 in 2 mi ESE 5.8 mph - -  
2:40 PM 91.4 °F 30.2 °F 11% 29.92 in 5.0 mi ENE 8.1 mph - N/A   Unknown
3:10 PM 93.2 °F 33.8 °F 12% 29.92 in 5.0 mi East 6.9 mph - N/A   Unknown
3:40 PM 93.2 °F 33.8 °F 12% 29.89 in 5.0 mi East 6.9 mph - N/A   Unknown
4:10 PM 93.2 °F 33.8 °F 12% 29.89 in 5.0 mi ENE 6.9 mph - N/A   Unknown
4:40 PM 93.2 °F 35.6 °F 13% 29.89 in 5.0 mi NE 9.2 mph - N/A   Unknown
5:10 PM 93.2 °F 28.4 °F 10% 29.89 in 5.0 mi NE 10.4 mph - N/A   Unknown
5:30 PM 90 °F 30 °F 6% 29.95 in 2 mi NNE 4.6 mph - -  
5:40 PM 91.4 °F 32.0 °F 12% 29.92 in 3.7 mi NE 6.9 mph - N/A   Unknown
6:10 PM 89.6 °F 30.2 °F 12% 29.92 in 3.1 mi NE 5.8 mph - N/A   Smoke
6:40 PM 86.0 °F 35.6 °F 17% 29.92 in 2.5 mi ENE 4.6 mph - N/A   Smoke
7:10 PM 82.4 °F 39.2 °F 21% 29.92 in 2.5 mi ENE 2.3 mph - N/A   Smoke
7:40 PM 78.8 °F 37.4 °F 23% 29.95 in 2.5 mi NNE 2.3 mph - N/A   Smoke
8:10 PM 75.2 °F 41.0 °F 29% 29.95 in 2.5 mi Variable 2.3 mph - N/A   Smoke
8:30 PM 70 °F 47 °F 33% 30.00 in 2 mi Calm Calm - -  
8:40 PM 77.0 °F 37.4 °F 24% 29.95 in 2.5 mi Variable 3.5 mph - N/A   Smoke
9:10 PM 71.6 °F 41.0 °F 33% 29.98 in 2.5 mi Variable 2.3 mph - N/A   Smoke
9:40 PM 68.0 °F 42.8 °F 40% 29.98 in 2.5 mi Variable 2.3 mph - N/A   Smoke
10:10 PM 68.0 °F 44.6 °F 43% 29.98 in 2.5 mi NNE 2.3 mph - N/A   Smoke
10:40 PM 66.2 °F 42.8 °F 43% 29.98 in 2.5 mi NNE 2.3 mph - N/A   Smoke
11:10 PM 66.2 °F 39.2 °F 37% 29.98 in 2.5 mi ENE 3.5 mph - N/A   Smoke
11:30 PM 62 °F 46 °F 45% 30.01 in 2 mi Calm Calm - -  
11:40 PM 66.2 °F 37.4 °F 35% 29.98 in 2.5 mi ENE 2.3 mph - N/A   Smoke